Regional Weather Roundup
Issued by NWS

Home | Current Version | Previous Version | Text Only | Print | Product List | Glossary On
Versions: 1 2 3 4 5 6 7 8 9 10 11 12 13 14 15 16 17 18 19 20 21 22 23 24 25 26 27 28 29 30 31 32 33 34 35 36 37 38 39 40 41 42 43 44 45 46 47 48 49 50
756
ASUS46 KSEW 231110
RWRWA

WASHINGTON REGIONAL WEATHER ROUNDUP
NATIONAL WEATHER SERVICE SEATTLE WA
400 AM PDT SAT JUL 23 2016

NOTE:"FAIR" INDICATES FEW OR NO CLOUDS BELOW 12,000 FEET WITH NO
SIGNIFICANT WEATHER AND/OR OBSTRUCTIONS TO VISIBILITY.

WAZ505-507>509-231200-
SEATTLE, TACOMA, EVERETT, AND VICINITY

CITY           SKY/WX    TMP DP  RH WIND       PRES   REMARKS
EVERETT        CLOUDY    57  54  89 CALM      30.27F
BOEING FIELD   CLOUDY    60  53  77 CALM      30.26S
RENTON         CLOUDY    59  55  87 CALM      30.26S
SEATAC AIRPORT MOCLDY    58  55  90 W3        30.27S
JBLM-MCCHORD   CLOUDY    58  57  95 S5        30.26F
PUYALLUP         N/A     59  57  94 CALM      30.27S
BREMERTON      CLOUDY    57  55  94 CALM      30.27F
JBLM-FT LEWIS  CLOUDY    58  56  95 SE6       30.25F
TACOMA NARROWS CLOUDY    58  54  86 CALM      30.26F
$$

WAZ001-503-506-510-514-515-231200-
NORTH INTERIOR

CITY           SKY/WX    TMP DP  RH WIND       PRES   REMARKS
BELLINGHAM     CLOUDY    62  52  69 S7        30.23F
FRIDAY HARBOR  PTCLDY    55  52  89 SW6       30.24F
EASTSOUND      CLEAR     57  52  82 S8        30.21F
PORT ANGELES   CLOUDY    58  53  84 W13       30.26F
EDIZ HOOK      CLOUDY    57  53  84 W13       30.26F
PORT TOWNSEND  CLOUDY    59  55  88 W5        30.26F
NAS WHIDBEY    CLOUDY    58  52  80 CALM      30.29S
ARLINGTON      CLOUDY    57  50  77 CALM      30.28F
BURLINGTON     CLOUDY    57  55  94 S6        30.26S
$$

WAZ020-022-039-040-504-511-512-231200-
SOUTHWEST INTERIOR

CITY           SKY/WX    TMP DP  RH WIND       PRES   REMARKS
SHELTON        CLOUDY    57  53  86 W8        30.24S
OLYMPIA        CLOUDY    57  53  86 S6        30.26F
CHEHALIS       CLOUDY    59  57  94 CALM      30.27F
KELSO          CLOUDY    60  55  83 CALM      30.27F
VANCOUVER      CLOUDY    61  53  75 NW7       30.26S
SCAPPOOSE, OR  CLOUDY    59  52  77 NE3       30.25F
PORTLAND, OR   CLOUDY    62  53  72 NW9       30.26S
$$

WAZ021-516-517-231200-
WASHINGTON COAST

CITY           SKY/WX    TMP DP  RH WIND       PRES   REMARKS
FORKS          LGT RAIN  57  57 100 CALM      30.27F
HOQUIAM        NOT AVBL
ASTORIA, OR    CLOUDY    59  57  93 CALM      30.26F
$$

WAZ019-023-024-040-518-519-231200-
CASCADE MOUNTAINS AND COLUMBIA GORGE

CITY           SKY/WX    TMP DP  RH WIND       PRES   REMARKS
STAMPEDE PASS  CLOUDY    47  45  93 VRB6      30.26F
TROUTDALE, OR  CLOUDY    60  55  83 CALM      30.26S
THE DALLES, OR PTCLDY    62  50  64 NW7       30.18S
$$

WAZ026-027-041>044-520-521-231200-
EAST SLOPES

CITY           SKY/WX    TMP DP  RH WIND       PRES   REMARKS
OMAK           MOCLDY    56  42  59 NW5       30.13R
WENATCHEE      PTCLDY    61  45  55 W12       30.13S
ELLENSBURG     PTCLDY    58  47  66 NW15      30.16S
YAKIMA         PTCLDY    55  44  66 CALM      30.17R
$$

WAZ028-034-035-231200-
COLUMBIA BASIN

CITY           SKY/WX    TMP DP  RH WIND       PRES   REMARKS
EPHRATA        MOCLDY    62  44  51 W5        30.13R
MOSES LAKE     MOCLDY    59  46  62 W7        30.13S
PASCO          PTCLDY    60  51  72 CALM      30.15S
HERMISTON, OR  PTCLDY    62  48  60 SW6       30.16S
$$

WAZ036>038-231200-
NORTHEAST WASHINGTON

CITY           SKY/WX    TMP DP  RH WIND       PRES   REMARKS
SPOKANE GEIGER MOCLDY    52  46  80 S7        30.13S
SPOKANE FELTS  MOCLDY    56  54  93 CALM      30.14S FOG
FAIRCHILD AFB  MOCLDY    52  47  82 S5        30.13F
COEURDALENE,ID CLOUDY    55  52  88 CALM      30.11F
DEER PARK      PTCLDY    49  47  93 CALM      30.14R FOG
$$

WAZ029>033-231200-
SOUTHEAST WASHINGTON

CITY           SKY/WX    TMP DP  RH WIND       PRES   REMARKS
PULLMAN        PTCLDY    52  45  77 CALM      30.19S
LEWISTON, ID   CLEAR     62  47  57 SE5       30.14F
WALLA WALLA    PTCLDY    60  48  64 S10       30.17F
PENDLETON, OR  PTCLDY    55  46  71 S3        30.18S
$$




USA.gov is the U.S. government's official web portal to all federal, state and local government web resources and services.